sat.trackr.live / text

‹ back to catalog

STARLINK-30395

NORAD 57812 · 2023-138E

PAYLOAD ACTIVE UNKNOWN

§ Identity

Operator
Country
US
Launch date
2023-09-09
Launch site
AFETR
Launch vehicle
Mass (kg)
RCS (m²)

Purposes: comms

External: N2YO · Heavens-Above · Gunter

§ Orbital elements

Epoch: 2026-05-25T02:19:05.325024Z

Period
94.27 min
Inclination
43.0068°
Eccentricity
0.0001754
Mean motion
15.27570986 rev/d
Perigee alt
481.9 km
Apogee alt
484.3 km
Semi-major
6,861.2 km
B*
1.6244e-5
RAAN
162.6858°
Arg perigee
272.5057°
Mean anomaly
87.5594°
Rev number
15,042

§ Raw data

STARLINK-303951 57812U 23138E   26145.09658941  .00000185  00000+0  16244-4 0  99942 57812  43.0068 162.6858 0001754 272.5057  87.5594 15.27570986150427

JSON: /api/v1/satellites/57812 · /tle

For live sub-satellite position, see the globe view (requires WebGL).

§ Visibility from observer

Set your observer location to see the next 7 days of passes ≥ 10°. The values pass through the URL so the page stays shareable.

No JS? Fill the form by hand. The geolocation button needs JavaScript.